Tracking 24120 objects as of 5-Dec-2021
HD Live streaming from Space Station
objects crossing your sky now

SL-14 R/B

Track SL-14 R/B now!
10-day predictions


NORAD ID: 19337
Int'l Code: 1988-064B
Perigee: 1,189.8 km
Apogee: 1,215.1 km
Inclination: 82.5 °
Period: 109.3 minutes
Semi major axis: 7573 km
RCS: 5.3254 m2 (large)
Launch date: July 26, 1988
Source: Commonwealth of Independent States (former USSR) (CIS)
Launch site: PLESETSK MISSILE AND SPACE COMPLEX (PKMTR)

Note: This is a ROCKET BODY
aabbcc
Your satellite tracking list
Your tracking list is empty




NASA's NSSDC Master Catalog

Two Line Element Set (TLE):
1 19337U 88064B   21338.76852028 -.00000096  00000-0 -28124-3 0  9991
2 19337  82.5489  65.3169 0016675  60.4290  57.4142 13.17233855603793
Source of the keplerian elements: AFSPC